| time (UTC) | temp C | wind direction | speed KPH | gust KPH | rain 1hr cm | rain 24hr cm | rain mn cm | humidity % | barometer mb |
| 20260504014014 | 9 | 250 | 0.0 | 0.0 | 0.00 | 0.00 | 0.00 | 65 | 1012.6 |
| 20260504013512 | 9 | 250 | 0.0 | 0.0 | 0.00 | 0.00 | 0.00 | 64 | 1012.5 |
| 20260504013009 | 10 | 250 | 0.0 | 0.0 | 0.00 | 0.00 | 0.00 | 63 | 1012.5 |
| 20260504012506 | 10 | 250 | 0.0 | 0.0 | 0.00 | 0.00 | 0.00 | 62 | 1012.7 |
| 20260504012004 | 10 | 250 | 0.0 | 0.0 | 0.00 | 0.00 | 0.00 | 61 | 1012.4 |
| 20260504011500 | 10 | 250 | 0.0 | 0.0 | 0.00 | 0.00 | 0.00 | 60 | 1012.5 |
| 20260504010955 | 10 | 249 | 0.0 | 0.0 | 0.00 | 0.00 | 0.00 | 59 | 1012.5 |
| 20260504010452 | 11 | 249 | 0.0 | 0.0 | 0.00 | 0.00 | 0.00 | 57 | 1012.6 |
| 20260504005948 | 11 | 249 | 0.0 | 0.0 | 0.00 | 0.00 | 0.00 | 57 | 1012.4 |
| 20260504005445 | 11 | 249 | 0.0 | 0.0 | 0.00 | 0.00 | 0.00 | 55 | 1012.6 |
| 20260504004943 | 12 | 249 | 0.0 | 0.0 | 0.00 | 0.00 | 0.00 | 55 | 1012.4 |
| 20260504004440 | 12 | 249 | 0.0 | 1.6 | 0.00 | 0.00 | 0.00 | 52 | 1012.3 |
| 20260504003937 | 12 | 241 | 1.6 | 1.6 | 0.00 | 0.00 | 0.00 | 51 | 1012.4 |
| 20260504003433 | 12 | 251 | 0.0 | 1.6 | 0.00 | 0.00 | 0.00 | 52 | 1012.3 |
| 20260504002930 | 12 | 251 | 0.0 | 1.6 | 0.00 | 0.00 | 0.00 | 50 | 1012.4 |
| 20260504002427 | 13 | 250 | 0.0 | 1.6 | 0.00 | 0.00 | 0.00 | 51 | 1012.5 |
| 20260504001924 | 13 | 248 | 1.6 | 1.6 | 0.00 | 0.00 | 0.00 | 49 | 1012.5 |
| 20260504001422 | 13 | 249 | 0.0 | 1.6 | 0.00 | 0.00 | 0.00 | 50 | 1012.4 |
| 20260504000918 | 13 | 238 | 3.2 | 3.2 | 0.00 | 0.00 | 0.00 | 48 | 1012.2 |
| 20260504000416 | 13 | 251 | 0.0 | 0.0 | 0.00 | 0.00 | 0.00 | 48 | 1012.3 |
| 20260503235912 | 13 | 246 | 1.6 | 1.6 | 0.00 | 0.00 | 0.00 | 47 | 1012.4 |
| 20260503235410 | 13 | 248 | 1.6 | 1.6 | 0.00 | 0.00 | 0.00 | 47 | 1012.3 |
| 20260503234908 | 13 | 262 | 1.6 | 3.2 | 0.00 | 0.00 | 0.00 | 45 | 1012.6 |
| 20260503234405 | 13 | 256 | 0.0 | 1.6 | 0.00 | 0.00 | 0.00 | 47 | 1012.4 |
| 20260503233903 | 13 | 265 | 3.2 | 4.8 | 0.00 | 0.00 | 0.00 | 45 | 1012.4 |
| 20260503233359 | 13 | 252 | 0.0 | 1.6 | 0.00 | 0.00 | 0.00 | 45 | 1012.3 |
| 20260503232855 | 14 | 256 | 0.0 | 0.0 | 0.00 | 0.00 | 0.00 | 46 | 1012.2 |
| 20260503232353 | 14 | 257 | 1.6 | 3.2 | 0.00 | 0.00 | 0.00 | 45 | 1012.3 |
| 20260503231850 | 14 | 269 | 3.2 | 4.8 | 0.00 | 0.00 | 0.00 | 45 | 1012.3 |
| 20260503231347 | 14 | 254 | 3.2 | 3.2 | 0.00 | 0.00 | 0.00 | 45 | 1012.3 |
| 20260503230843 | 14 | 252 | 3.2 | 3.2 | 0.00 | 0.00 | 0.00 | 44 | 1012.2 |
| 20260503230340 | 14 | 238 | 3.2 | 3.2 | 0.00 | 0.00 | 0.00 | 44 | 1012.2 |
| 20260503225838 | 15 | 288 | 3.2 | 3.2 | 0.00 | 0.00 | 0.00 | 44 | 1012.2 |
| 20260503225334 | 15 | 236 | 8.0 | 14.5 | 0.00 | 0.00 | 0.00 | 43 | 1012.4 |
| 20260503224830 | 15 | 253 | 4.8 | 4.8 | 0.00 | 0.00 | 0.00 | 42 | 1012.2 |
| 20260503224327 | 15 | 240 | 8.0 | 11.3 | 0.00 | 0.00 | 0.00 | 41 | 1012.2 |
| 20260503223825 | 15 | 250 | 8.0 | 12.9 | 0.00 | 0.00 | 0.00 | 43 | 1012.4 |
| 20260503223323 | 15 | 251 | 4.8 | 4.8 | 0.00 | 0.00 | 0.00 | 42 | 1012.3 |
| 20260503222818 | 15 | 261 | 3.2 | 4.8 | 0.00 | 0.00 | 0.00 | 42 | 1012.3 |
| 20260503222317 | 15 | 262 | 3.2 | 3.2 | 0.00 | 0.00 | 0.00 | 42 | 1012.5 |
| 20260503221815 | 15 | 206 | 6.4 | 9.7 | 0.00 | 0.00 | 0.00 | 39 | 1012.5 |
| 20260503221313 | 15 | 249 | 1.6 | 3.2 | 0.00 | 0.00 | 0.00 | 42 | 1012.5 |
| 20260503220809 | 15 | 254 | 0.0 | 0.0 | 0.00 | 0.00 | 0.00 | 40 | 1012.5 |
| 20260503220306 | 15 | 190 | 6.4 | 9.7 | 0.00 | 0.00 | 0.00 | 39 | 1012.5 |
| 20260503215802 | 15 | 273 | 4.8 | 8.0 | 0.00 | 0.00 | 0.00 | 40 | 1012.5 |
| 20260503215259 | 16 | 301 | 4.8 | 8.0 | 0.00 | 0.00 | 0.00 | 39 | 1012.5 |
| 20260503214757 | 16 | 246 | 1.6 | 1.6 | 0.00 | 0.00 | 0.00 | 39 | 1012.1 |
| 20260503214254 | 15 | 228 | 3.2 | 3.2 | 0.00 | 0.00 | 0.00 | 40 | 1012.3 |
| 20260503213752 | 15 | 284 | 1.6 | 1.6 | 0.00 | 0.00 | 0.00 | 40 | 1012.3 |
| 20260503213249 | 16 | 263 | 1.6 | 4.8 | 0.00 | 0.00 | 0.00 | 41 | 1012.2 |
| 20260503212746 | 16 | 260 | 3.2 | 4.8 | 0.00 | 0.00 | 0.00 | 40 | 1012.3 |
| 20260503212243 | 16 | 267 | 3.2 | 4.8 | 0.00 | 0.00 | 0.00 | 39 | 1012.1 |
| 20260503211741 | 16 | 297 | 6.4 | 8.0 | 0.00 | 0.00 | 0.00 | 39 | 1012.1 |
| 20260503211237 | 17 | 217 | 3.2 | 3.2 | 0.00 | 0.00 | 0.00 | 38 | 1012.2 |
| 20260503210732 | 16 | 284 | 4.8 | 4.8 | 0.00 | 0.00 | 0.00 | 39 | 1012.2 |
| 20260503210230 | 16 | 258 | 0.0 | 1.6 | 0.00 | 0.00 | 0.00 | 39 | 1012.3 |
| 20260503205725 | 17 | 257 | 3.2 | 3.2 | 0.00 | 0.00 | 0.00 | 37 | 1012.5 |
| 20260503205222 | 16 | 240 | 3.2 | 8.0 | 0.00 | 0.00 | 0.00 | 38 | 1012.4 |
| 20260503204718 | 16 | 319 | 6.4 | 12.9 | 0.00 | 0.00 | 0.00 | 39 | 1012.7 |
| 20260503204216 | 16 | 327 | 3.2 | 8.0 | 0.00 | 0.00 | 0.00 | 42 | 1012.4 |
| 20260503203713 | 15 | 266 | 1.6 | 3.2 | 0.00 | 0.00 | 0.00 | 42 | 1012.5 |
| 20260503203211 | 15 | 257 | 6.4 | 9.7 | 0.00 | 0.00 | 0.00 | 40 | 1012.4 |
| 20260503202708 | 15 | 274 | 3.2 | 3.2 | 0.00 | 0.00 | 0.00 | 43 | 1012.9 |
| 20260503202206 | 15 | 251 | 4.8 | 4.8 | 0.00 | 0.00 | 0.00 | 41 | 1012.7 |
| 20260503201703 | 15 | 253 | 1.6 | 1.6 | 0.00 | 0.00 | 0.00 | 40 | 1012.9 |
| 20260503201200 | 16 | 263 | 4.8 | 4.8 | 0.00 | 0.00 | 0.00 | 40 | 1013.0 |
| 20260503200656 | 16 | 265 | 3.2 | 3.2 | 0.00 | 0.00 | 0.00 | 39 | 1013.1 |
| 20260503200153 | 16 | 209 | 4.8 | 4.8 | 0.00 | 0.00 | 0.00 | 41 | 1013.2 |
| 20260503195650 | 17 | 246 | 1.6 | 3.2 | 0.00 | 0.00 | 0.00 | 39 | 1013.2 |
| 20260503195147 | 16 | 279 | 3.2 | 3.2 | 0.00 | 0.00 | 0.00 | 43 | 1013.1 |
| 20260503194644 | 15 | 300 | 4.8 | 4.8 | 0.00 | 0.00 | 0.00 | 40 | 1013.4 |
| 20260503194139 | 16 | 283 | 6.4 | 8.0 | 0.00 | 0.00 | 0.00 | 41 | 1013.7 |
| 20260503193637 | 15 | 252 | 1.6 | 1.6 | 0.00 | 0.00 | 0.00 | 46 | 1013.5 |
| 20260503193132 | 15 | 300 | 8.0 | 12.9 | 0.00 | 0.00 | 0.00 | 42 | 1013.6 |
| 20260503192628 | 16 | 271 | 3.2 | 4.8 | 0.00 | 0.00 | 0.00 | 42 | 1013.9 |
| 20260503192124 | 16 | 213 | 8.0 | 12.9 | 0.00 | 0.00 | 0.00 | 41 | 1013.8 |
| 20260503191621 | 15 | 277 | 3.2 | 4.8 | 0.00 | 0.00 | 0.00 | 43 | 1013.9 |
| 20260503191118 | 15 | 100 | 3.2 | 4.8 | 0.00 | 0.00 | 0.00 | 42 | 1014.0 |
| 20260503190615 | 16 | 52 | 1.6 | 4.8 | 0.00 | 0.00 | 0.00 | 43 | 1014.1 |
| 20260503190112 | 16 | 296 | 9.7 | 11.3 | 0.00 | 0.00 | 0.00 | 43 | 1013.9 |
| 20260503185608 | 16 | 273 | 6.4 | 8.0 | 0.00 | 0.00 | 0.00 | 43 | 1014.0 |
| 20260503185108 | 16 | 282 | 4.8 | 9.7 | 0.00 | 0.00 | 0.00 | 43 | 1014.1 |
| 20260503184604 | 16 | 254 | 4.8 | 4.8 | 0.00 | 0.00 | 0.00 | 44 | 1014.2 |
| 20260503184100 | 16 | 255 | 3.2 | 3.2 | 0.00 | 0.00 | 0.00 | 45 | 1014.2 |
| 20260503183557 | 16 | 257 | 3.2 | 4.8 | 0.00 | 0.00 | 0.00 | 42 | 1014.3 |
| 20260503183054 | 16 | 323 | 4.8 | 9.7 | 0.00 | 0.00 | 0.00 | 41 | 1014.4 |
| 20260503182553 | 15 | 238 | 3.2 | 4.8 | 0.00 | 0.00 | 0.00 | 42 | 1014.4 |
| 20260503182050 | 15 | 279 | 4.8 | 4.8 | 0.00 | 0.00 | 0.00 | 48 | 1014.3 |
| 20260503181547 | 15 | 287 | 1.6 | 4.8 | 0.00 | 0.00 | 0.00 | 45 | 1014.5 |
| 20260503181043 | 16 | 254 | 4.8 | 9.7 | 0.00 | 0.00 | 0.00 | 46 | 1014.6 |
| 20260503180541 | 16 | 259 | 3.2 | 4.8 | 0.00 | 0.00 | 0.00 | 47 | 1014.4 |
| 20260503180038 | 16 | 113 | 3.2 | 4.8 | 0.00 | 0.00 | 0.00 | 46 | 1014.7 |
| 20260503175535 | 15 | 270 | 3.2 | 3.2 | 0.00 | 0.00 | 0.00 | 45 | 1014.6 |
| 20260503175033 | 16 | 276 | 4.8 | 8.0 | 0.00 | 0.00 | 0.00 | 43 | 1014.6 |
| 20260503174530 | 16 | 286 | 4.8 | 4.8 | 0.00 | 0.00 | 0.00 | 46 | 1014.8 |
| 20260503174026 | 15 | 249 | 6.4 | 8.0 | 0.00 | 0.00 | 0.00 | 40 | 1015.0 |
| 20260503173521 | 15 | 227 | 4.8 | 9.7 | 0.00 | 0.00 | 0.00 | 44 | 1014.8 |
| 20260503173017 | 15 | 100 | 4.8 | 8.0 | 0.00 | 0.00 | 0.00 | 45 | 1015.0 |
| 20260503172515 | 15 | 275 | 8.0 | 9.7 | 0.00 | 0.00 | 0.00 | 43 | 1014.9 |
| 20260503172012 | 15 | 264 | 4.8 | 4.8 | 0.00 | 0.00 | 0.00 | 47 | 1014.7 |
| 20260503171508 | 15 | 227 | 3.2 | 8.0 | 0.00 | 0.00 | 0.00 | 45 | 1015.1 |
| 20260503171006 | 15 | 266 | 3.2 | 4.8 | 0.00 | 0.00 | 0.00 | 44 | 1015.1 |
| 20260503170502 | 15 | 262 | 1.6 | 3.2 | 0.00 | 0.00 | 0.00 | 46 | 1015.1 |
| 20260503150855 | 12 | 259 | 1.6 | 1.6 | 0.00 | 0.00 | 0.00 | 48 | 1016.0 |
| 20260503150351 | 12 | 253 | 0.0 | 1.6 | 0.00 | 0.00 | 0.00 | 45 | 1015.9 |
| 20260503140315 | 10 | 266 | 3.2 | 4.8 | 0.00 | 0.00 | 0.00 | 58 | 1016.4 |
| 20260503131244 | 7 | 261 | 1.6 | 1.6 | 0.00 | 0.00 | 0.00 | 74 | 1016.9 |
| 20260503130742 | 7 | 253 | 3.2 | 3.2 | 0.00 | 0.00 | 0.00 | 74 | 1017.2 |
| 20260503130239 | 6 | 253 | 4.8 | 4.8 | 0.00 | 0.00 | 0.00 | 79 | 1017.1 |
| 20260503120205 | 1 | 259 | 0.0 | 0.0 | 0.00 | 0.00 | 0.00 | 99 | 1016.5 |
| 20260503110632 | -1 | 254 | 0.0 | 0.0 | 0.00 | 0.00 | 0.00 | 99 | 1016.4 |
| 20260503110130 | -1 | 253 | 0.0 | 0.0 | 0.00 | 0.00 | 0.00 | 99 | 1016.1 |
| 20260503081446 | 0 | 254 | 0.0 | 0.0 | 0.00 | 0.00 | 0.00 | 99 | 1015.6 |
| 20260503080943 | 0 | 254 | 0.0 | 0.0 | 0.00 | 0.00 | 0.00 | 99 | 1015.7 |
| 20260503080439 | 0 | 254 | 0.0 | 0.0 | 0.00 | 0.00 | 0.00 | 99 | 1015.6 |
| 20260503072916 | 0 | 254 | 0.0 | 0.0 | 0.00 | 0.00 | 0.00 | 99 | 1015.6 |
| 20260503072413 | 0 | 254 | 0.0 | 0.0 | 0.00 | 0.00 | 0.00 | 99 | 1015.7 |
| 20260503071909 | 0 | 254 | 0.0 | 0.0 | 0.00 | 0.00 | 0.00 | 99 | 1015.5 |
| 20260503071407 | 0 | 254 | 0.0 | 0.0 | 0.00 | 0.00 | 0.00 | 99 | 1015.7 |
| 20260503070902 | 0 | 254 | 0.0 | 0.0 | 0.00 | 0.00 | 0.00 | 99 | 1015.5 |
| 20260503070400 | 0 | 254 | 0.0 | 0.0 | 0.00 | 0.00 | 0.00 | 99 | 1015.4 |
| 20260503060326 | 1 | 255 | 0.0 | 0.0 | 0.00 | 0.00 | 0.00 | 99 | 1015.7 |
| 20260503054814 | 1 | 255 | 0.0 | 0.0 | 0.00 | 0.00 | 0.00 | 99 | 1015.6 |
| 20260503054309 | 1 | 255 | 0.0 | 0.0 | 0.00 | 0.00 | 0.00 | 99 | 1015.6 |
| 20260503053808 | 1 | 255 | 0.0 | 0.0 | 0.00 | 0.00 | 0.00 | 99 | 1015.7 |
| 20260503053306 | 1 | 255 | 0.0 | 0.0 | 0.00 | 0.00 | 0.00 | 99 | 1015.9 |
| 20260503052802 | 1 | 255 | 0.0 | 0.0 | 0.00 | 0.00 | 0.00 | 99 | 1015.6 |
| 20260503052259 | 1 | 255 | 0.0 | 0.0 | 0.00 | 0.00 | 0.00 | 99 | 1015.8 |
| 20260503051754 | 1 | 255 | 0.0 | 0.0 | 0.00 | 0.00 | 0.00 | 99 | 1015.9 |
| 20260503051252 | 1 | 255 | 0.0 | 0.0 | 0.00 | 0.00 | 0.00 | 99 | 1016.0 |
| 20260503050748 | 1 | 256 | 0.0 | 0.0 | 0.00 | 0.00 | 0.00 | 99 | 1016.0 |
| 20260503050244 | 1 | 256 | 0.0 | 0.0 | 0.00 | 0.00 | 0.00 | 99 | 1015.8 |
| 20260503045742 | 1 | 256 | 0.0 | 0.0 | 0.00 | 0.00 | 0.00 | 99 | 1016.1 |
| 20260503045240 | 1 | 256 | 0.0 | 0.0 | 0.00 | 0.00 | 0.00 | 98 | 1016.0 |
| 20260503044736 | 1 | 256 | 0.0 | 0.0 | 0.00 | 0.00 | 0.00 | 98 | 1016.3 |
| 20260503044233 | 1 | 256 | 0.0 | 0.0 | 0.00 | 0.00 | 0.00 | 98 | 1016.1 |
| 20260503043730 | 1 | 256 | 0.0 | 0.0 | 0.00 | 0.00 | 0.00 | 98 | 1016.1 |
| 20260503043227 | 1 | 256 | 0.0 | 0.0 | 0.00 | 0.00 | 0.00 | 98 | 1015.9 |
| 20260503042723 | 2 | 256 | 0.0 | 0.0 | 0.00 | 0.00 | 0.00 | 98 | 1016.1 |
| 20260503042220 | 2 | 256 | 0.0 | 0.0 | 0.00 | 0.00 | 0.00 | 98 | 1016.1 |
| 20260503041716 | 2 | 256 | 0.0 | 0.0 | 0.00 | 0.00 | 0.00 | 97 | 1016.2 |
| 20260503041214 | 2 | 256 | 0.0 | 0.0 | 0.00 | 0.00 | 0.00 | 97 | 1015.9 |
| 20260503040711 | 2 | 256 | 0.0 | 0.0 | 0.00 | 0.00 | 0.00 | 97 | 1016.1 |
| 20260503040209 | 2 | 256 | 0.0 | 0.0 | 0.00 | 0.00 | 0.00 | 97 | 1016.1 |
| 20260503035705 | 2 | 256 | 0.0 | 0.0 | 0.00 | 0.05 | 0.05 | 97 | 1016.2 |
| 20260503035203 | 1 | 256 | 0.0 | 0.0 | 0.00 | 0.05 | 0.05 | 97 | 1016.1 |
| 20260503034700 | 1 | 256 | 0.0 | 0.0 | 0.00 | 0.05 | 0.05 | 96 | 1016.2 |
| 20260503034157 | 2 | 256 | 0.0 | 0.0 | 0.00 | 0.05 | 0.05 | 96 | 1016.3 |
| 20260503033654 | 1 | 256 | 0.0 | 0.0 | 0.00 | 0.05 | 0.05 | 96 | 1016.2 |
| 20260503033152 | 1 | 256 | 0.0 | 0.0 | 0.00 | 0.05 | 0.05 | 95 | 1016.1 |
| 20260503032650 | 1 | 256 | 0.0 | 0.0 | 0.00 | 0.05 | 0.05 | 95 | 1016.2 |
| 20260503032148 | 1 | 256 | 0.0 | 0.0 | 0.00 | 0.05 | 0.05 | 95 | 1016.2 |
| 20260503031645 | 1 | 256 | 0.0 | 0.0 | 0.00 | 0.05 | 0.05 | 94 | 1016.0 |
| 20260503031143 | 2 | 256 | 0.0 | 0.0 | 0.00 | 0.05 | 0.05 | 94 | 1016.2 |
| 20260503030638 | 1 | 256 | 0.0 | 0.0 | 0.00 | 0.05 | 0.05 | 92 | 1016.2 |
| 20260503030136 | 2 | 256 | 0.0 | 0.0 | 0.00 | 0.05 | 0.05 | 92 | 1016.1 |
| 20260503025632 | 2 | 256 | 0.0 | 0.0 | 0.00 | 0.05 | 0.05 | 92 | 1016.2 |
| 20260503025130 | 2 | 256 | 0.0 | 0.0 | 0.00 | 0.05 | 0.05 | 91 | 1016.1 |
| 20260503024626 | 2 | 256 | 0.0 | 0.0 | 0.00 | 0.05 | 0.05 | 90 | 1016.2 |
| 20260503024123 | 2 | 256 | 0.0 | 0.0 | 0.00 | 0.05 | 0.05 | 90 | 1016.2 |
| 20260503023621 | 2 | 256 | 0.0 | 0.0 | 0.00 | 0.05 | 0.05 | 88 | 1016.4 |
| 20260503023118 | 2 | 256 | 0.0 | 0.0 | 0.00 | 0.05 | 0.05 | 85 | 1016.4 |
| 20260503022613 | 3 | 256 | 0.0 | 0.0 | 0.00 | 0.05 | 0.05 | 84 | 1016.3 |
| 20260503022108 | 3 | 256 | 0.0 | 0.0 | 0.00 | 0.05 | 0.05 | 84 | 1016.1 |
| 20260503021606 | 3 | 256 | 0.0 | 0.0 | 0.00 | 0.05 | 0.05 | 83 | 1016.0 |
| 20260503021102 | 3 | 256 | 0.0 | 0.0 | 0.00 | 0.05 | 0.05 | 82 | 1016.2 |
| 20260503020559 | 4 | 256 | 0.0 | 0.0 | 0.00 | 0.05 | 0.05 | 82 | 1016.1 |
| 20260503020056 | 4 | 256 | 0.0 | 0.0 | 0.00 | 0.05 | 0.05 | 81 | 1016.1 |
| 20260503015553 | 4 | 256 | 0.0 | 0.0 | 0.00 | 0.05 | 0.05 | 81 | 1016.3 |
| 20260503015050 | 4 | 255 | 0.0 | 0.0 | 0.00 | 0.05 | 0.05 | 81 | 1016.1 |
| 20260503014546 | 4 | 256 | 0.0 | 0.0 | 0.00 | 0.05 | 0.05 | 81 | 1016.2 |